DW0148 Weather Reports


time (UTC)temp
C
wind
direction
speed
KPH
gust
KPH
rain 1hr
cm
rain 24hr
cm
rain mn
cm
humidity
%
barometer
mb
20180819193053 30 87 3.2 9.7 0.00 0.15 0.05 68 1015.1
20180819192551 30 167 6.4 9.7 0.00 0.15 0.05 70 1015.1
20180819192050 30 152 3.2 8.0 0.00 0.15 0.05 73 1015.1
20180819191549 29 87 1.6 9.7 0.00 0.15 0.05 71 1015.1
20180819191048 29 64 1.6 9.7 0.00 0.15 0.05 71 1015.4
20180819190547 29 195 3.2 9.7 0.00 0.15 0.05 71 1015.4
20180819190046 29 171 6.4 9.7 0.00 0.15 0.05 70 1015.4
20180819185544 28 200 3.2 12.9 0.00 0.15 0.05 71 1015.4
20180819185044 28 220 1.6 12.9 0.00 0.15 0.05 73 1015.4
20180819184543 30 169 6.4 12.9 0.00 0.15 0.05 68 1015.4
20180819184041 30 185 8.0 12.9 0.00 0.15 0.05 66 1015.4
20180819183541 30 158 1.6 8.0 0.00 0.15 0.05 70 1015.4
20180819183040 30 206 1.6 8.0 0.00 0.15 0.05 68 1015.4
20180819182539 30 216 3.2 6.4 0.00 0.15 0.05 69 1015.7
20180819182038 29 204 1.6 6.4 0.00 0.15 0.05 69 1015.4
20180819181536 29 157 3.2 6.4 0.00 0.15 0.05 67 1015.7
20180819181036 29 168 1.6 9.7 0.00 0.15 0.05 70 1015.7
20180819180534 29 217 3.2 9.7 0.00 0.15 0.05 68 1015.7
20180819180033 29 156 3.2 12.9 0.00 0.15 0.05 71 1015.7
20180819175532 29 167 4.8 12.9 0.00 0.15 0.05 66 1015.7
20180819175031 28 171 3.2 6.4 0.00 0.15 0.05 73 1015.7
20180819174530 29 166 3.2 6.4 0.00 0.15 0.05 70 1015.7
20180819174029 29 173 3.2 6.4 0.00 0.15 0.05 73 1015.7
20180819173528 29 169 3.2 6.4 0.00 0.15 0.05 69 1015.7
20180819173027 29 192 1.6 4.8 0.00 0.15 0.05 72 1015.7
20180819172526 28 169 3.2 6.4 0.00 0.15 0.05 72 1015.7
20180819172025 28 172 0.0 6.4 0.00 0.15 0.05 73 1015.7
20180819171523 28 166 3.2 8.0 0.00 0.15 0.05 73 1015.7
20180819171022 28 177 3.2 8.0 0.00 0.15 0.05 71 1016.1
20180819170522 27 166 1.6 6.4 0.00 0.15 0.05 76 1016.1
20180819170021 27 178 1.6 8.0 0.00 0.15 0.05 73 1016.1
20180819165520 27 167 3.2 8.0 0.00 0.15 0.05 75 1016.1
20180819165019 27 165 4.8 8.0 0.00 0.15 0.05 75 1016.1
20180819164518 27 195 1.6 8.0 0.00 0.15 0.05 78 1016.1
20180819164017 27 169 0.0 6.4 0.00 0.15 0.05 79 1016.1
20180819163516 27 206 1.6 6.4 0.00 0.15 0.05 77 1016.1
20180819163015 27 170 1.6 6.4 0.00 0.15 0.05 80 1016.1
20180819162514 27 168 1.6 8.0 0.00 0.15 0.05 78 1016.1
20180819162013 27 191 0.0 8.0 0.00 0.15 0.05 80 1016.4
20180819161513 27 196 3.2 6.4 0.00 0.15 0.05 79 1016.4
20180819161012 26 177 3.2 4.8 0.00 0.15 0.05 82 1016.1
20180819160511 26 173 1.6 4.8 0.00 0.15 0.05 82 1016.1
20180819160010 26 172 1.6 6.4 0.00 0.15 0.05 82 1016.1
20180819155510 26 181 3.2 6.4 0.00 0.15 0.05 84 1016.1
20180819155009 26 201 0.0 4.8 0.00 0.15 0.05 84 1016.1
20180819154508 26 204 1.6 4.8 0.00 0.15 0.05 83 1016.1
20180819154007 26 184 1.6 3.2 0.00 0.15 0.05 83 1016.1
20180819153506 26 169 0.0 3.2 0.00 0.15 0.05 83 1016.1
20180819153005 26 203 0.0 4.8 0.00 0.15 0.05 83 1016.1
20180819152504 26 206 1.6 4.8 0.00 0.15 0.05 81 1016.1
20180819152003 26 203 0.0 4.8 0.00 0.15 0.05 81 1016.4
20180819151501 26 170 0.0 4.8 0.00 0.15 0.05 83 1016.4
20180819151001 25 174 0.0 6.4 0.00 0.15 0.05 85 1016.4
20180819150459 25 198 1.6 6.4 0.00 0.15 0.05 84 1016.1
20180819145958 25 171 3.2 4.8 0.00 0.15 0.05 88 1016.1
20180819145457 25 173 0.0 3.2 0.00 0.15 0.05 86 1016.1
20180819144956 25 174 0.0 3.2 0.00 0.15 0.05 87 1016.1
20180819144455 25 173 0.0 3.2 0.00 0.15 0.05 88 1016.1
20180819143954 25 174 0.0 4.8 0.00 0.15 0.05 88 1016.1
20180819143453 25 174 0.0 4.8 0.00 0.15 0.05 88 1016.1
20180819142952 25 178 3.2 6.4 0.00 0.15 0.05 87 1016.1
20180819142451 25 193 1.6 6.4 0.00 0.15 0.05 87 1016.1
20180819141950 25 179 0.0 3.2 0.00 0.15 0.05 87 1016.1
20180819141449 25 171 1.6 4.8 0.00 0.15 0.05 87 1016.1
20180819140948 25 204 1.6 4.8 0.00 0.15 0.05 88 1016.1
20180819140446 25 200 0.0 4.8 0.00 0.15 0.05 88 1016.1
20180819135945 24 172 0.0 4.8 0.00 0.15 0.05 91 1016.1
20180819135444 24 182 1.6 6.4 0.00 0.15 0.05 93 1016.1
20180819134943 23 169 3.2 6.4 0.00 0.15 0.05 93 1016.1
20180819134442 23 203 0.0 4.8 0.00 0.15 0.05 95 1016.1
20180819133941 23 201 1.6 6.4 0.00 0.15 0.05 94 1016.1
20180819133440 23 198 0.0 6.4 0.00 0.15 0.05 95 1016.1
20180819132939 23 186 0.0 1.6 0.00 0.15 0.05 95 1016.1
20180819132438 23 193 0.0 4.8 0.00 0.15 0.05 96 1016.1
20180819131937 22 188 0.0 4.8 0.00 0.15 0.05 96 1016.1
20180819131436 22 187 0.0 4.8 0.00 0.15 0.05 96 1016.1
20180819130936 22 181 3.2 4.8 0.00 0.15 0.05 96 1016.1
20180819130435 22 191 1.6 4.8 0.00 0.15 0.05 96 1015.7
20180819125934 22 264 1.6 4.8 0.00 0.15 0.05 96 1015.7
20180819125433 22 237 1.6 1.6 0.00 0.15 0.05 96 1016.1
20180819124932 22 239 1.6 1.6 0.00 0.15 0.05 96 1016.1
20180819124431 22 238 1.6 1.6 0.00 0.15 0.05 96 1015.7
20180819123930 22 228 1.6 1.6 0.00 0.15 0.05 96 1015.7
20180819123429 22 227 0.0 1.6 0.00 0.15 0.05 96 1015.7
20180819122949 22 228 0.0 1.6 0.00 0.15 0.05 96 1015.7
20180818223806 25 114 0.0 8.0 0.05 0.84 0.10 87 1013.7
20180818223220 26 92 1.6 8.0 0.05 0.86 0.10 85 1013.7
20180818222719 26 153 1.6 9.7 0.05 0.86 0.10 83 1014.1
20180818222217 27 180 3.2 9.7 0.03 0.84 0.08 80 1013.7
20180818221716 27 123 3.2 9.7 0.00 0.84 0.05 79 1013.7
20180818221215 27 224 3.2 9.7 0.00 0.84 0.05 77 1013.7
20180818220714 28 193 3.2 12.9 0.00 0.86 0.05 75 1013.7
20180818220211 28 180 4.8 12.9 0.00 0.86 0.05 73 1013.7
20180818215710 28 185 4.8 9.7 0.00 0.86 0.05 73 1013.7
20180818215209 29 150 1.6 8.0 0.00 0.89 0.05 73 1013.7
20180818214707 29 199 3.2 9.7 0.00 0.89 0.05 72 1013.7
20180818214206 29 197 4.8 9.7 0.00 0.89 0.05 71 1013.7
20180818213705 30 196 6.4 9.7 0.00 0.89 0.05 68 1013.7
20180818213204 30 186 3.2 6.4 0.00 0.89 0.05 68 1013.7
20180818212703 30 231 3.2 12.9 0.00 0.91 0.05 71 1013.7
20180818212202 29 66 1.6 12.9 0.00 0.91 0.05 70 1013.7
20180818211701 29 35 3.2 16.1 0.00 0.91 0.05 70 1013.7
20180818211200 29 199 8.0 16.1 0.00 0.94 0.05 70 1013.7
20180818210659 29 210 4.8 14.5 0.00 0.94 0.05 70 1013.7
20180818210158 30 195 6.4 14.5 0.00 0.97 0.05 70 1014.1
20180818205657 30 235 3.2 6.4 0.00 0.97 0.05 69 1014.1
20180818205156 29 94 3.2 8.0 0.00 0.99 0.05 71 1014.1
20180818204655 29 83 1.6 8.0 0.00 1.07 0.05 69 1014.1
20180818204154 30 36 4.8 8.0 0.00 1.09 0.05 67 1014.1
20180818203653 30 202 4.8 8.0 0.00 1.09 0.05 69 1014.4
20180818203152 30 323 1.6 6.4 0.00 1.09 0.05 68 1014.4
20180818202651 30 118 1.6 6.4 0.00 1.09 0.05 70 1014.4
20180818202149 29 88 3.2 8.0 0.00 1.09 0.05 66 1014.4
20180818201649 29 120 3.2 8.0 0.00 1.09 0.05 70 1014.4
20180818201147 29 294 3.2 9.7 0.00 1.09 0.05 65 1014.7
20180818200646 29 159 4.8 9.7 0.00 1.09 0.05 68 1014.7
20180818200145 29 187 3.2 6.4 0.00 1.09 0.05 71 1014.7
20180818195644 29 248 1.6 8.0 0.00 1.09 0.05 69 1014.7
20180818195143 29 221 1.6 8.0 0.00 1.09 0.05 66 1015.1
20180818194642 29 177 3.2 9.7 0.00 1.09 0.05 68 1015.1
20180818194140 29 155 3.2 9.7 0.00 1.09 0.05 69 1015.1
20180818193633 28 202 4.8 8.0 0.00 1.09 0.05 73 1015.1